Location: ???
(35.5616°N, 139.7977°E)
Time: 20:38:18
(UTC+00:00)

Meteor 1-11 - Pass Details

Date: 17 November 2025
Orbit: 830 x 894 km, 81.2° (Epoch: 08 December)

Event Time Altitude Azimuth Distance (km) Brightness Sun altitude
Rises 20:06:15 0° 193° (SSW) 3,488 7.4 -14.9°
Reaches altitude 10° 20:08:43 10° 196° (SSW) 2,554 6.7 -14.4°
Maximum altitude 20:14:31 70° 279° (W) 950 4.2 -13.3°
Drops below altitude 10° 20:20:21 10° 3° (N) 2,562 6.6 -12.1°
Sets 20:22:49 0° 6° (N) 3,499 7.3 -11.6°
